Emporia, VA

6:30 PM EST on January 20, 2018 (GMT -0500)
Emporia-Greensville Regional

Weather History for KEMV - January, 2013

Change the Weather History Date:

Monday, January 14, 2013

  Actual Average Record
Temperature  
Mean Temperature 56 °F -  
Max Temperature 64 °F 50 °F 73 °F (2007)
Min Temperature 46 °F 23 °F 12 °F (1989)
Degree Days  
Heating Degree Days 9    
Growing Degree Days 6 (Base 50)    
Moisture  
Dew Point 57 °F    
Average Humidity 97    
Maximum Humidity 100    
Minimum Humidity 83    
Precipitation  
Precipitation 1.27 in - - ()
Sea Level Pressure  
Sea Level Pressure 30.14 in    
Wind  
Wind Speed 4 mph (ESE)    
Max Wind Speed 14 mph    
Max Gust Speed 20 mph    
Visibility 7 miles    
Events Rain    
Averages and records for this station are not official NWS values.
T = Trace of Precipitation, MM = Missing Value Source: NWS Daily Summary

Daily Weather History Graph

Daily Weather History Graph

Search for Another Location

Airport or City:

Trip Planner

Search our weather history database for the weather conditions in past years. The results will help you decide how hot, cold, wet, or windy it might be!

Date:

Astronomy

Jan. 14, 2013 Rise Set
Actual Time 7:21 AM EST 5:16 PM EST
Civil Twilight 6:53 AM EST 5:45 PM EST
Nautical Twilight 6:21 AM EST 6:16 PM EST
Astronomical Twilight 5:50 AM EST 6:48 PM EST
Moon 9:00 AM EST (1/14) 8:53 PM EST (1/14)
Length of Visible Light 10h 51m
Length of Day
9h 55m
Waxing Crescent, 11% of the Moon is Illuminated
Jan 14
Waxing Crescent
Jan 18
First Quarter
Jan 26
Full
Feb 3
Last Quarter
Feb 10
New

Hourly Weather History & Observations

Time (EST) Temp. Windchill Dew Point Humidity Pressure Visibility Wind Dir Wind Speed Gust Speed Precip Events Conditions
12:15 AM 59.0 °F - 57.2 °F 94% 30.09 in 10.0 mi SE 4.6 mph - N/A   Clear
12:35 AM 57.2 °F - 57.2 °F 100% 30.09 in 10.0 mi SE 4.6 mph - N/A   Clear
12:55 AM 59.0 °F - 57.2 °F 94% 30.10 in 10.0 mi Calm Calm - N/A   Clear
1:15 AM 59.0 °F - 57.2 °F 94% 30.10 in 10.0 mi Calm Calm - N/A   Clear
1:35 AM 59.0 °F - 57.2 °F 94% 30.10 in 10.0 mi Calm Calm - N/A   Clear
2:15 AM 57.2 °F - 55.4 °F 94% 30.11 in 10.0 mi SE 3.5 mph - N/A   Clear
2:35 AM 55.4 °F - 55.4 °F 100% 30.12 in 10.0 mi SE 3.5 mph - N/A   Clear
2:55 AM 55.4 °F - 55.4 °F 100% 30.12 in 10.0 mi Calm Calm - N/A   Clear
3:15 AM 55.4 °F - 55.4 °F 100% 30.12 in 10.0 mi SE 3.5 mph - N/A   Clear
3:35 AM 55.4 °F - 55.4 °F 100% 30.12 in 10.0 mi SE 3.5 mph - N/A   Clear
3:55 AM 55.4 °F - 55.4 °F 100% 30.11 in 10.0 mi SE 3.5 mph - N/A   Clear
4:35 AM 55.4 °F - 55.4 °F 100% 30.10 in - SE 3.5 mph - N/A   Unknown
5:15 AM 55.4 °F - 55.4 °F 100% 30.10 in 7.0 mi SE 3.5 mph - N/A   Clear
5:35 AM 55.4 °F - 55.4 °F 100% 30.10 in 5.0 mi SE 3.5 mph - N/A   Clear
5:55 AM 55.4 °F - 55.4 °F 100% 30.11 in 7.0 mi SE 3.5 mph - N/A   Clear
6:15 AM 55.4 °F - 55.4 °F 100% 30.12 in - SE 3.5 mph - N/A   Unknown
6:35 AM 55.4 °F - 55.4 °F 100% 30.12 in 7.0 mi SSE 3.5 mph - N/A   Scattered Clouds
6:55 AM 55.4 °F - 55.4 °F 100% 30.12 in 7.0 mi SE 3.5 mph - N/A   Clear
7:15 AM 55.4 °F - 55.4 °F 100% 30.12 in 7.0 mi SE 3.5 mph - N/A   Scattered Clouds
7:35 AM 55.4 °F - 55.4 °F 100% 30.13 in 7.0 mi SE 3.5 mph - N/A   Overcast
7:55 AM 57.2 °F - 57.2 °F 100% 30.15 in 10.0 mi SSE 3.5 mph - N/A   Overcast
8:15 AM 57.2 °F - 57.2 °F 100% 30.15 in 10.0 mi Calm Calm - N/A   Overcast
8:55 AM 59.0 °F - 57.2 °F 94% 30.16 in 10.0 mi Calm Calm - N/A   Overcast
9:15 AM 59.0 °F - 57.2 °F 94% 30.16 in 10.0 mi SSE 4.6 mph - N/A   Mostly Cloudy
9:35 AM 60.8 °F - 59.0 °F 94% 30.16 in 10.0 mi SSE 3.5 mph - N/A   Scattered Clouds
9:55 AM 60.8 °F - 59.0 °F 94% 30.16 in 10.0 mi Calm Calm - N/A   Mostly Cloudy
10:15 AM 60.8 °F - 59.0 °F 94% 30.17 in - South 4.6 mph - N/A   Overcast
10:35 AM 60.8 °F - 59.0 °F 94% 30.17 in 10.0 mi South 3.5 mph - N/A   Overcast
10:55 AM 62.6 °F - 59.0 °F 88% 30.16 in 10.0 mi SSE 4.6 mph - N/A   Overcast
11:15 AM 62.6 °F - 59.0 °F 88% 30.15 in 10.0 mi SSE 3.5 mph - N/A   Overcast
11:35 AM 62.6 °F - 59.0 °F 88% 30.14 in 10.0 mi SSE 3.5 mph - N/A   Overcast
11:55 AM 62.6 °F - 59.0 °F 88% 30.13 in 10.0 mi SSE 3.5 mph - N/A   Overcast
12:15 PM 62.6 °F - 59.0 °F 88% 30.12 in 10.0 mi South 4.6 mph - N/A   Overcast
12:35 PM 64.4 °F - 59.0 °F 83% 30.12 in 10.0 mi South 4.6 mph - N/A   Overcast
12:55 PM 62.6 °F - 59.0 °F 88% 30.12 in 10.0 mi Calm Calm - N/A   Overcast
1:15 PM 62.6 °F - 59.0 °F 88% 30.12 in 10.0 mi Calm Calm - N/A   Unknown
1:55 PM 62.6 °F - 60.8 °F 94% 30.12 in 7.0 mi Calm Calm - 0.02 in Rain Light Rain
2:15 PM 60.8 °F - 60.8 °F 100% 30.13 in 1.8 mi Calm Calm - 0.06 in Rain Heavy Rain
2:35 PM 60.8 °F - 60.8 °F 100% 30.13 in 1.5 mi ESE 3.5 mph - 0.17 in Rain Heavy Rain
2:55 PM 60.8 °F - 60.8 °F 100% 30.13 in 2.5 mi East 3.5 mph - 0.23 in Rain Rain
3:15 PM 60.8 °F - 60.8 °F 100% 30.13 in 2.5 mi East 3.5 mph - N/A Rain Rain
3:35 PM 60.8 °F - 60.8 °F 100% 30.14 in 2.0 mi East 3.5 mph - 0.12 in Rain Heavy Rain
3:55 PM 60.8 °F - 60.8 °F 100% 30.13 in 2.0 mi East 3.5 mph - 0.22 in Rain Heavy Rain
4:15 PM 60.8 °F - 60.8 °F 100% 30.14 in 4.0 mi East 3.5 mph - 0.03 in Rain Rain
4:35 PM 60.8 °F - 60.8 °F 100% 30.14 in 3.0 mi ESE 3.5 mph - 0.06 in Rain Rain
4:55 PM 60.8 °F - 60.8 °F 100% 30.14 in 3.0 mi Calm Calm - 0.11 in Rain Rain
5:15 PM 60.8 °F - 60.8 °F 100% 30.15 in 4.0 mi Calm Calm - 0.04 in Rain Heavy Rain
5:35 PM 60.8 °F - 60.8 °F 100% 30.15 in 2.5 mi Calm Calm - 0.11 in Rain Heavy Rain
5:55 PM 60.8 °F - 60.8 °F 100% 30.16 in - Calm Calm - 0.24 in Rain Heavy Rain
6:15 PM 60.8 °F - 60.8 °F 100% 30.17 in 1.5 mi Calm Calm - 0.06 in Rain Rain
6:35 PM 60.8 °F - 60.8 °F 100% 30.17 in 1.0 mi Calm Calm - 0.15 in Rain Heavy Rain
6:55 PM 59.0 °F - 59.0 °F 100% 30.17 in - NNW 9.2 mph - 0.24 in Rain Rain
7:15 PM 55.4 °F - 55.4 °F 100% 30.18 in 7.0 mi NNW 9.2 mph - 0.02 in Rain Rain
7:35 PM 53.6 °F - 53.6 °F 100% 30.18 in 5.0 mi NNW 6.9 mph - 0.06 in Rain Heavy Rain
7:55 PM 53.6 °F - 53.6 °F 100% 30.17 in 5.0 mi North 5.8 mph - 0.11 in Rain Heavy Rain
8:15 PM 53.6 °F - 53.6 °F 100% 30.17 in 5.0 mi NNW 6.9 mph - 0.01 in Rain Rain
8:35 PM 53.6 °F - 53.6 °F 100% 30.18 in - NNW 8.1 mph - 0.02 in   Drizzle
8:55 PM 53.6 °F - 53.6 °F 100% 30.17 in 7.0 mi North 5.8 mph - 0.02 in   Unknown
9:15 PM 51.8 °F - 51.8 °F 100% 30.17 in 7.0 mi NW 10.4 mph - 0.01 in Rain Rain
9:35 PM 51.8 °F - 51.8 °F 100% 30.18 in 5.0 mi NNW 9.2 mph - 0.06 in Rain Rain
9:55 PM 51.8 °F - 51.8 °F 100% 30.19 in 5.0 mi NNW 10.4 mph - 0.07 in   Drizzle
10:15 PM 50.0 °F - 50.0 °F 100% 30.19 in 10.0 mi North 8.1 mph - N/A   Light Drizzle
10:35 PM 50.0 °F - 50.0 °F 100% 30.19 in 10.0 mi NNW 6.9 mph - N/A   Overcast
10:55 PM 50.0 °F - 50.0 °F 100% 30.21 in 10.0 mi NNW 9.2 mph - N/A   Overcast
11:15 PM 50.0 °F - 50.0 °F 100% 30.20 in - North 9.2 mph 19.6 mph N/A Rain Light Rain
11:35 PM 48.2 °F - 48.2 °F 100% 30.21 in 10.0 mi North 13.8 mph 19.6 mph 0.01 in Rain Rain
11:55 PM 46.4 °F 41.1 °F 46.4 °F 100% 30.23 in 10.0 mi North 11.5 mph 18.4 mph 0.01 in   Drizzle